DELTA 1 DEB, 10706

Orbit data source: Space-Track

DELTA 1 DEB, 10706 is space debris in SSO originally from a launch on Thu, 29 Jul 1976 UTC launched from the Air Force Western Test Range (AFWTR). Debris objects in space refer to the collection of defunct objects orbiting the Earth. Examples of debris include non-operational satellites, rocket bodies, and fragments generated from explosions, collisions, or faulty payload assembly.

Loading next visibility...
Identifier
10706, 1976-077AB
Orbit
SSO
Country
Flag of USUS
Related business
Manufacturer
Unknown
Mission
Spacecraft
Bus & Motor
Unknown
Mass
Unknown
Launch date (UTC)
1976-07-29 (49 years ago)
Launch vehicle
Unknown
Launch site
Air Force Western Test Range (AFWTR)
Object type
Payload
Rocket body
Debris
Shape & HBR
Unknown
Radar Cross Section
Small (<0.1 m²)

Expand to show TLE details & history
Last TLE update: 11 hours ago

TLE from 11 hours ago
0 DELTA 1 DEB
1 10706U 76077AB  25261.07427196  .00000441  00000-0  14893-2 0  9999
2 10706 101.5502 110.6420 0391925 345.0015 169.8429 12.82955809284575
Epoch: 2025-09-18T01:46Z
TLE epoch observation values (Epoch: 2025-09-18T01:46:57.097Z)
Latitude
23.89666°
Longitude
-88.16676°
Altitude
1,629.992 km
Speed
6.921 km/s
True Right ascension
19h 43m 14s
True Declination
23° 47' 00"
Sunlit
Object was in daylight at epoch
Visualization orbit readout
Latitude
Unknown
Longitude
Unknown
Altitude
Unknown
Speed
Unknown
Apparent Right ascension
Unknown
Apparent Declination
Unknown
Sunlit
N/A
Visualization observer readout
Local Sidereal Time
06:01:24
Azimuth
Unknown
Elevation
Unknown
Doppler factor
Unknown
Orbital elements
Apogee altitude
1,629.082 km
Perigee altitude
1,025.108 km
Semi-major axis
7,705.232 km
Eccentricity
0.03919
Inclination
101.5502°
RAAN
110.642°
Arg. of periapsis
345.0015°
True anomaly
170.59838°
Mean anomaly
169.8429°
Eccentric anomaly
170.22418°
Mean motion
3.20896 °/min
Orbital period
112.19 mins
BSTAR
0.0014893
Loading maneuver chart data...
Computing Atmospheric mass density...
Loading historical data...
Loading historical data...
Loading historical data...
Loading historical data...
Loading historical data...
Loading historical data...
Loading historical data...

Documentation

Showing up to 5 results
|